Location: Oshawa
(43.9000°N, 78.8670°W)
Time: 19:37:01
(UTC-04:00)

CARTOSAT-1 - Visible Passes

Search period start: 16 August 2017 00:00
Search period end: 26 August 2017 00:00
Orbit: 617 x 619 km, 97.9° (Epoch: 16 August)

Date Brightness Start Highest point End Pass type
(mag) Time Alt. Az. Time Alt. Az. Time Alt. Az.
16 Aug 5.7 21:45:19 12° ENE 21:46:20 13° ENE 21:48:11 10° NE visible
16 Aug 4.0 23:22:27 61° NW 23:22:27 61° NW 23:26:10 10° NNW visible
17 Aug 5.3 22:02:21 18° ENE 22:02:54 18° ENE 22:05:50 10° NNE visible
17 Aug 4.7 23:39:29 41° WNW 23:39:29 41° WNW 23:42:50 10° NNW visible
18 Aug 4.8 22:19:24 25° ENE 22:19:31 26° ENE 22:23:05 10° NNE visible
18 Aug 5.3 23:56:33 27° WNW 23:56:33 27° WNW 23:59:21 10° NNW visible
19 Aug 4.4 22:36:27 36° ENE 22:36:27 36° ENE 22:40:10 10° N visible
20 Aug 5.8 00:13:35 19° WNW 00:13:35 19° WNW 00:15:40 10° NW visible
20 Aug 4.1 22:53:30 50° NE 22:53:30 50° NE 22:57:06 10° N visible
21 Aug 6.3 00:30:38 13° WNW 00:30:38 13° WNW 00:31:38 10° WNW visible
21 Aug 4.1 23:10:33 54° N 23:10:33 54° N 23:13:56 10° NNW visible
22 Aug 5.6 21:50:28 14° ENE 21:50:48 14° ENE 21:53:01 10° NNE visible
22 Aug 4.6 23:27:36 43° NW 23:27:36 43° NW 23:30:41 10° NNW visible
23 Aug 5.2 22:07:31 20° ENE 22:07:31 20° ENE 22:10:31 10° NNE visible
23 Aug 5.2 23:44:39 31° NW 23:44:39 31° NW 23:47:17 10° NNW visible
24 Aug 4.9 22:24:34 27° NE 22:24:34 27° NE 22:27:42 10° N visible
25 Aug 5.8 00:01:42 22° WNW 00:01:42 22° WNW 00:03:46 10° NW visible
25 Aug 4.6 22:41:37 36° NE 22:41:37 36° NE 22:44:44 10° N visible
